Date String (YYYY-MM-DD hh:mm:ss) UTC,Instrument flags,Ambient pressure (hPa),Sample flow (lpm),Bypass flow (lpm),Sample temperature (°C),Ambient temperature (°C),ASC tube jacket temperature (°C),LED temperature (°C),Box temperature (°C),Sample RH (%),Span deviation,Mass concentration (μg/m³),Mass concentration (μg/m³),Mass concentration (μg/m³)
DateTimeUTC,F1_M11,P_M11,Q1_M11,Q2_M11,T1_M11,T2_M11,T3_M11,T4_M11,T5_M11,U1_M11,ZSPAN_M11,X0_M11,X2_M11,X1_M11
2021-12-01 07:00:00,,0827.7,5.00,0.00,26.8,25.8,00.0,35.8,28.5,11.1,0000.0,0017.59,0005.75,0003.95
2021-12-01 07:01:00,,0827.6,5.01,0.00,26.7,25.8,00.0,35.8,28.4,12.3,0000.0,0017.58,0005.67,0003.92
2021-12-01 07:02:00,,0827.6,5.00,0.00,26.7,25.7,00.0,35.7,28.4,12.2,0000.0,0017.53,0005.67,0003.92
2021-12-01 07:03:00,,0827.6,4.98,0.00,26.7,25.8,00.0,35.7,28.5,11.5,0000.0,0016.47,0005.56,0003.87
2021-12-01 07:04:00,,0827.7,5.00,0.00,26.7,25.8,00.0,35.7,28.6,12.0,0000.0,0016.01,0005.53,0003.84
2021-12-01 07:05:00,,0827.7,5.00,0.00,26.7,25.8,00.0,35.7,28.5,12.4,0000.0,0015.90,0005.50,0003.83
2021-12-01 07:06:00,,0827.7,4.99,0.00,26.8,25.8,00.0,35.7,28.5,12.5,0000.0,0016.41,0005.45,0003.80
2021-12-01 07:07:00,,0827.6,5.00,0.00,26.8,25.8,00.0,35.7,28.5,12.4,0000.0,0016.65,0005.35,0003.79
2021-12-01 07:08:00,,0827.6,5.01,0.00,26.8,25.8,00.0,35.7,28.5,11.9,0000.0,0017.72,0005.38,0003.82
2021-12-01 07:09:00,,0827.6,4.98,0.00,26.7,25.8,00.0,35.7,28.5,12.4,0000.0,0018.85,0005.66,0003.97
2021-12-01 07:10:00,,0827.5,5.01,0.00,26.7,25.8,00.0,35.7,28.5,12.5,0000.0,0020.07,0006.02,0004.13
2021-12-01 07:11:00,,0827.5,4.99,0.00,26.7,25.8,00.0,35.7,28.5,12.5,0000.0,0022.44,0006.39,0004.28
2021-12-01 07:12:00,,0827.5,5.00,0.00,26.7,25.8,00.0,35.7,28.5,12.3,0000.0,0023.83,0006.54,0004.28
2021-12-01 07:13:00,,0827.5,5.01,0.00,26.7,25.7,00.0,35.7,28.4,12.3,0000.0,0024.58,0006.60,0004.26
2021-12-01 07:14:00,,0827.4,5.00,0.00,26.7,25.7,00.0,35.7,28.4,12.1,0000.0,0026.02,0006.67,0004.27
2021-12-01 07:15:00,,0827.4,4.99,0.00,26.7,25.7,00.0,35.7,28.4,12.3,0000.0,0027.27,0006.76,0004.29
2021-12-01 07:16:00,,0827.4,5.00,0.00,26.7,25.7,00.0,35.7,28.4,11.5,0000.0,0027.19,0006.79,0004.24
2021-12-01 07:17:00,,0827.2,5.00,0.00,26.7,25.7,00.0,35.7,28.4,11.0,0000.0,0026.21,0006.65,0004.13
2021-12-01 07:18:00,,0827.2,5.00,0.00,26.7,25.7,00.0,35.7,28.4,10.8,0000.0,0026.13,0006.44,0004.01
2021-12-01 07:19:00,,0827.2,5.00,0.00,26.7,25.7,00.0,35.7,28.5,10.4,0000.0,0024.92,0006.20,0003.90
2021-12-01 07:20:00,,0827.2,5.01,0.00,26.7,25.7,00.0,35.7,28.5,10.5,0000.0,0023.91,0006.00,0003.77
2021-12-01 07:21:00,,0827.2,4.99,0.00,26.7,25.7,00.0,35.7,28.4,11.8,0000.0,0022.29,0005.91,0003.73
2021-12-01 07:22:00,,0827.2,5.02,0.00,26.7,25.7,00.0,35.7,28.4,11.3,0000.0,0019.95,0005.71,0003.68
2021-12-01 07:23:00,,0827.1,4.97,0.00,26.7,25.7,00.0,35.7,28.4,10.4,0000.0,0017.89,0005.45,0003.59
2021-12-01 07:24:00,,0827.2,5.01,0.00,26.7,25.6,00.0,35.7,28.4,10.2,0000.0,0016.49,0005.07,0003.44
2021-12-01 07:25:00,,0827.1,4.99,0.00,26.7,25.6,00.0,35.7,28.4,10.3,0000.0,0015.71,0004.85,0003.32
2021-12-01 07:26:00,,0827.1,5.01,0.00,26.7,25.6,00.0,35.7,28.4,09.8,0000.0,0014.19,0004.55,0003.16
2021-12-01 07:27:00,,0827.0,5.00,0.00,26.6,25.6,00.0,35.7,28.4,09.7,0000.0,0012.98,0004.21,0002.94
2021-12-01 07:28:00,,0827.0,5.00,0.00,26.6,25.6,00.0,35.7,28.3,10.0,0000.0,0013.15,0004.05,0002.78
2021-12-01 07:29:00,,0827.1,5.00,0.00,26.6,25.6,00.0,35.7,28.3,10.5,0000.0,0012.68,0004.00,0002.74
2021-12-01 07:30:00,,0827.0,5.00,0.00,26.6,25.6,00.0,35.7,28.3,10.4,0000.0,0012.31,0004.04,0002.73
2021-12-01 07:31:00,,0827.1,5.00,0.00,26.6,25.6,00.0,35.7,28.3,10.2,0000.0,0011.76,0004.00,0002.73
2021-12-01 07:32:00,,0826.9,5.01,0.00,26.6,25.6,00.0,35.7,28.3,09.6,0000.0,0010.95,0003.75,0002.52
2021-12-01 07:33:00,,0827.1,5.00,0.00,26.6,25.5,00.0,35.6,28.3,09.4,0000.0,0009.93,0003.37,0002.15
2021-12-01 07:34:00,,0827.1,5.01,0.00,26.6,25.5,00.0,35.6,28.2,09.6,0000.0,0009.73,0003.20,0001.96
2021-12-01 07:35:00,,0826.9,4.99,0.00,26.5,25.5,00.0,35.6,28.2,10.7,0000.0,0010.68,0003.22,0001.94
2021-12-01 07:36:00,,0827.2,5.00,0.00,26.5,25.4,00.0,35.6,28.1,10.6,0000.0,0010.13,0003.32,0002.04
2021-12-01 07:37:00,,0827.2,5.01,0.00,26.5,25.4,00.0,35.6,28.1,10.3,0000.0,0010.57,0003.34,0002.06
2021-12-01 07:38:00,,0827.1,4.98,0.00,26.5,25.4,00.0,35.6,28.1,10.3,0000.0,0011.28,0003.39,0002.13
2021-12-01 07:39:00,,0826.9,5.02,0.00,26.5,25.4,00.0,35.6,28.1,10.2,0000.0,0010.97,0003.42,0002.16
2021-12-01 07:40:00,,0827.0,4.99,0.00,26.5,25.4,00.0,35.6,28.1,10.2,0000.0,0010.12,0003.39,0002.12
2021-12-01 07:41:00,,0826.8,5.01,0.00,26.5,25.4,00.0,35.6,28.1,09.5,0000.0,0009.91,0003.28,0002.01
2021-12-01 07:42:00,,0827.0,5.00,0.00,26.4,25.4,00.0,35.5,28.1,09.5,0000.0,0009.49,0003.12,0001.86
2021-12-01 07:43:00,,0826.8,4.99,0.00,26.4,25.4,00.0,35.5,28.1,09.4,0000.0,0009.39,0003.04,0001.78
2021-12-01 07:44:00,,0826.8,4.99,0.00,26.4,25.4,00.0,35.5,28.1,09.5,0000.0,0009.43,0003.09,0001.82
2021-12-01 07:45:00,,0826.8,5.01,0.00,26.3,25.4,00.0,35.5,28.0,09.4,0000.0,0009.44,0003.11,0001.82
2021-12-01 07:46:00,,0826.9,5.00,0.00,26.3,25.3,00.0,35.5,28.0,09.2,0000.0,0008.31,0002.94,0001.71
2021-12-01 07:47:00,,0826.7,5.00,0.00,26.3,25.3,00.0,35.5,28.0,09.2,0000.0,0007.99,0002.45,0001.44
2021-12-01 07:48:00,,0826.7,5.00,0.00,26.3,25.3,00.0,35.5,27.9,09.3,0000.0,0007.74,0002.25,0001.28
2021-12-01 07:49:00,,0826.7,5.00,0.00,26.2,25.2,00.0,35.4,27.9,09.4,0000.0,0006.02,0002.00,0001.11
2021-12-01 07:50:00,,0826.8,5.00,0.00,26.2,25.2,00.0,35.4,27.9,09.3,0000.0,0005.05,0001.72,0000.95
2021-12-01 07:51:00,,0826.8,5.01,0.00,26.2,25.2,00.0,35.4,27.9,09.3,0000.0,0004.46,0001.43,0000.79
2021-12-01 07:52:00,,0826.7,4.99,0.00,26.2,25.2,00.0,35.4,27.8,09.4,0000.0,0004.12,0001.28,0000.70
2021-12-01 07:53:00,,0826.8,5.00,0.00,26.1,25.2,00.0,35.3,27.8,09.5,0000.0,0003.99,0001.23,0000.67
2021-12-01 07:54:00,,0826.7,5.00,0.00,26.1,25.2,00.0,35.3,27.8,09.5,0000.0,0003.81,0001.17,0000.64
2021-12-01 07:55:00,,0826.7,5.00,0.00,26.1,25.2,00.0,35.3,27.8,09.4,0000.0,0003.54,0001.08,0000.59
2021-12-01 07:56:00,,0826.7,4.99,0.00,26.1,25.2,00.0,35.3,27.8,09.5,0000.0,0003.28,0000.96,0000.54
2021-12-01 07:57:00,,0826.7,5.00,0.00,26.1,25.2,00.0,35.3,27.8,09.4,0000.0,0002.96,0000.87,0000.51
2021-12-01 07:58:00,,0826.7,5.00,0.00,26.1,25.2,00.0,35.2,27.8,09.4,0000.0,0002.45,0000.81,0000.49
2021-12-01 07:59:00,,0826.6,5.02,0.00,26.1,25.2,00.0,35.2,27.7,09.5,0000.0,0001.42,0000.73,0000.48
